Location: Unspecified
(43.4354°N, 0.0000°E)
Time: 16:52:20
(UTC+00:00)

NOAA 18 - Visible Passes

Search period start: 19 October 2019 00:00
Search period end: 29 October 2019 00:00
Orbit: 840 x 861 km, 99.1° (Epoch: 18 October)

Date Brightness Start Highest point End Pass type
(mag) Time Alt. Az. Time Alt. Az. Time Alt. Az.
19 Oct 6.6 20:02:14 29° N 20:02:14 29° N 20:04:55 10° N visible
19 Oct 8.1 21:44:16 10° NW 21:44:16 10° NW 21:44:23 10° NW visible
20 Oct 6.6 19:50:29 27° N 19:50:29 27° N 19:53:04 10° N visible
20 Oct 8.0 21:32:30 12° NW 21:32:30 12° NW 21:33:04 10° NW visible
21 Oct 6.7 19:38:44 24° NNE 19:38:44 24° NNE 19:41:10 10° N visible
21 Oct 7.9 21:20:45 14° NW 21:20:45 14° NW 21:21:37 10° NW visible
22 Oct 6.8 19:26:58 22° NNE 19:26:58 22° NNE 19:29:15 10° N visible
22 Oct 7.7 21:08:59 16° NW 21:08:59 16° NW 21:10:05 10° NNW visible
23 Oct 6.9 19:15:12 19° NNE 19:15:12 19° NNE 19:17:15 10° N visible
23 Oct 7.6 20:57:13 17° NNW 20:57:13 17° NNW 20:58:29 10° NNW visible
24 Oct 7.0 19:03:27 17° NNE 19:03:27 17° NNE 19:05:11 10° NNE visible
24 Oct 7.5 20:45:28 18° NNW 20:45:28 18° NNW 20:46:49 10° NNW visible
25 Oct 7.1 18:51:41 14° NNE 18:51:41 14° NNE 18:53:01 10° NNE visible
25 Oct 7.4 20:33:42 18° NNW 20:33:42 18° NNW 20:35:06 10° NNW visible
26 Oct 7.2 18:39:55 12° NNE 18:39:55 12° NNE 18:40:42 10° NNE visible
26 Oct 7.3 20:21:56 19° NNW 20:21:56 19° NNW 20:23:21 10° NNW visible
27 Oct 7.3 20:10:10 18° N 20:10:10 18° N 20:11:33 10° N visible
28 Oct 7.2 19:58:23 18° N 19:58:23 18° N 19:59:44 10° N visible
